THORAD AGENA D DEB, 42541

Orbit data source: Space-Track

THORAD AGENA D DEB, 42541 is space debris in SSO originally from a launch on Wed, 08 Apr 1970 UTC launched from the Air Force Western Test Range (AFWTR). Debris objects in space refer to the collection of defunct objects orbiting the Earth. Examples of debris include non-operational satellites, rocket bodies, and fragments generated from explosions, collisions, or faulty payload assembly.

Loading next visibility...
Identifier
42541, 1970-025SX
Orbit
SSO
Country
Flag of USUS
Related business
Manufacturer
Unknown
Mission
Spacecraft
Bus & Motor
Unknown
Mass
Unknown
Launch date (UTC)
1970-04-08 (56 years ago)
Launch vehicle
Unknown
Launch site
Air Force Western Test Range (AFWTR)
Object type
Payload
Rocket body
Debris
Shape & HBR
Unknown shape, 0.1 m
Radar Cross Section
Medium (>0.1 m² and <1 m²)

Expand to show TLE details & history
Last TLE update: 2 weeks ago

TLE from 2 weeks ago
0 THORAD AGENA D DEB
1 42541U 70025SX  26156.50760831  .00000487  00000-0  57507-3 0  9996
2 42541 100.0648  59.1945 0031163 254.7588 279.5415 13.73395116627303
Epoch: 2026-06-05T12:10Z
TLE epoch observation values (Epoch: 2026-06-05T12:10:57.357Z)
Latitude
5.88132°
Longitude
163.56118°
Altitude
985.906 km
Speed
7.361 km/s
True Right ascension
16h 00m 56s
True Declination
5° 50' 51"
Sunlit
Object was in full shadow at epoch
Visualization orbit readout
Latitude
Unknown
Longitude
Unknown
Altitude
Unknown
Speed
Unknown
Apparent Right ascension
Unknown
Apparent Declination
Unknown
Sunlit
N/A
Visualization observer readout
Local Sidereal Time
02:40:51
Azimuth
Unknown
Elevation
Unknown
Doppler factor
Unknown
Orbital elements
Apogee altitude
1,007.641 km
Perigee altitude
961.752 km
Semi-major axis
7,362.834 km
Eccentricity
0.00312
Inclination
100.0648°
RAAN
59.1945°
Arg. of periapsis
254.7588°
True anomaly
279.18911°
Mean anomaly
279.5415°
Eccentric anomaly
279.36533°
Mean motion
3.43539 °/min
Orbital period
104.79 mins
BSTAR
0.00057507
Loading maneuver chart data...
Computing Atmospheric mass density...

Documentation

Showing up to 5 results
|